Simultaneous Nadir Overpasses (SNOs) Predictions

Prediction of SNOs between NOAA-20 and TERRA Satellite Orbit:

Table of predicted SNOs for the next 14.0 days since TLE Epoch: 6/22/2024
Index Date (NOAA-20) Time (NOAA-20) Lat,Lon (NOAA-20) SZA (NOAA-20 ) Date (TERRA) Time (TERRA) Lat,Lon (TERRA) SZA (TERRA ) Distance(km) Time Diff (sec)
1 06/22/2024 20:29:57 72.26,-134.75 48.93 06/22/2024 20:30:11 72.29,-134.76 48.96 3.24 14
2 06/22/2024 21:20:39 -72.19, 32.71 131.15 06/22/2024 21:19:36 -72.17, 32.69 131.15 1.53 63
3 06/25/2024 07:42:17 72.36, 56.98 49.10 06/25/2024 07:43:24 72.33, 56.97 49.06 2.68 67
4 06/25/2024 08:32:59 -72.28,-135.56 130.98 06/25/2024 08:32:48 -72.27,-135.48 130.99 3.06 11
5 06/25/2024 09:23:28 71.39, 33.40 48.07 06/25/2024 09:22:22 71.47, 30.84 48.29 90.99 66
6 06/27/2024 19:45:18 -72.33, 56.26 130.82 06/27/2024 19:46:00 -72.34, 56.31 130.82 2.14 42
7 06/27/2024 20:36:02 72.22,-136.21 49.06 06/27/2024 20:35:21 72.25,-136.20 49.09 2.95 41
8 06/30/2024 06:57:52 -73.20,-113.62 129.72 06/30/2024 06:58:57 -73.14,-110.55 129.96 99.00 65
9 06/30/2024 07:48:20 72.28, 55.59 49.27 06/30/2024 07:48:32 72.29, 55.55 49.28 2.12 12
10 06/30/2024 08:39:02 -72.20,-136.94 130.81 06/30/2024 08:37:57 -72.18,-137.00 130.82 3.43 65
11 07/02/2024 19:00:39 72.34,-112.61 49.53 07/02/2024 19:01:43 72.37,-112.66 49.54 2.87 64
12 07/02/2024 19:51:21 -72.26, 54.86 130.56 07/02/2024 19:51:08 -72.25, 54.79 130.57 3.03 13
13 07/05/2024 07:03:40 -72.33,-113.35 130.26 07/05/2024 07:04:18 -72.35,-113.38 130.25 1.81 38
14 07/05/2024 07:54:24 72.23, 54.16 49.63 07/05/2024 07:53:39 72.25, 54.12 49.67 3.10 45



Historial Predications of SNOs between NOAA-20 and TERRA
